AirNav   Air Wisconsin Up To $57,000 Bonus
 
 1694 users online  

4V8 Deerfield Valley Regional Airport
West Dover, Vermont, USA

GOING TO WEST DOVER?


FAA INFORMATION EFFECTIVE 07 NOVEMBER 2019

Location

FAA Identifier: 4V8
Lat/Long: 42-55-37.6880N 072-51-56.3530W
42-55.628133N 072-51.939217W
42.9271356,-72.8656536
(estimated)
Elevation: 1953 ft. / 595.3 m (surveyed)
Variation: 15W (1985)
From city: 1 mile SW of WEST DOVER, VT
Time zone: UTC -5 (UTC -4 during Daylight Saving Time)
Zip code: 05356

Airport Operations

Airport use: Open to the public
Activation date: 11/1982
Control tower: no
ARTCC: BOSTON CENTER
FSS: BURLINGTON FLIGHT SERVICE STATION
NOTAMs facility: BTV (NOTAM-D service available)
Attendance: UNATTND
Wind indicator: lighted
Segmented circle: no
Lights: SS-SR
Landing fee: yes

Airport Communications

CTAF/UNICOM: 122.8
WX ASOS at DDH (17 nm W): 135.925 (802-442-6059)
WX ASOS at AQW (19 nm SW): 134.775 (413-664-6658)
  • APCH/DEP SVC PRVDD BY BOSTON ARTCC ON FREQS 123.75/338.2 (GARDNER RCAG).

Nearby radio navigation aids

VOR radial/distance  VOR name  Freq  Var
CAMr115/21.4CAMBRIDGE VOR/DME115.0014W
EENr302/26.5KEENE VORTAC109.4014W
CTRr019/38.3CHESTER VOR/DME115.1013W

 
NDB name  Hdg/Dist  Freq  Var  ID
CLAREMONT235/34.223316WCNH -.-. -. ....

Airport Services

Parking: hangars and tiedowns

Runway Information

Runway 1/19

Dimensions: 2650 x 75 ft. / 808 x 23 m
Surface: asphalt, in excellent condition
Runway edge lights: medium intensity
THR LGTS ALL MISG.
RUNWAY 1  RUNWAY 19
Latitude: 42-55.413750N42-55.843583N
Longitude: 072-51.887917W072-51.989667W
Elevation: 1948.0 ft.1950.0 ft.
Traffic pattern: leftleft
Runway heading: 005 magnetic, 350 true185 magnetic, 170 true
Markings: nonprecision, in good conditionbasic, in good condition
Touchdown point: yes, no lightsno, no lights
Obstructions: 61 ft. trees, 662 ft. from runway, 54 ft. right of centerline, 7:1 slope to clear29 ft. trees, 945 ft. from runway, 160 ft. left of centerline, 25:1 slope to clear

Airport Ownership and Management from official FAA records

Ownership: Privately-owned
Owner: DEERFIELD VALLEY REG AIRPORT, LLC
HERMITAGE REALTY ESTATE HOLDING CO., 25 HANDLE ROAD
WEST DOVER, VT 05356
Phone (802) 490-0775
Manager: JIM BARNES
P.O. BOX 2210, 69 AIRPORT ROAD
WEST DOVER, VT 05356
Phone (802) 490-0775

Airport Operational Statistics

Aircraft based on the field: 7
Single engine airplanes: 5
Multi engine airplanes: 2
    
Aircraft operations: avg 59/week *
58% local general aviation
42% transient general aviation
* for 12-month period ending 15 September 2015

Additional Remarks

NEWLY PAVED RWYS & RAMP AREA.
RENNOVATED TRML BLDG WITH LOUNGE AREA AND OVNGT ACCOMODATIONS.
RENTAL CAR AVBL 802-447-2203 OPT 4.
FOR CD CTC BOSTON ARTCC AT 603-879-6859.

Instrument Procedures

NOTE: All procedures below are presented as PDF files. If you need a reader for these files, you should download the free Adobe Reader.

NOT FOR NAVIGATION. Please procure official charts for flight.
FAA instrument procedures published for use from 07 November 2019 at 0901Z to 05 December 2019 at 0900Z.

 
IAPs - Instrument Approach Procedures
RNAV (GPS) RWY 01 **CHANGED**   download (164KB)
NOTE: Special Take-Off Minimums/Departure Procedures apply   download (180KB)

Other nearby airports with instrument procedures:

KDDH - William H Morse State Airport (17 nm W)
KAQW - Harriman-and-West Airport (19 nm SW)
0B5 - Turners Falls Airport (25 nm SE)
KEEN - Dillant-Hopkins Airport (26 nm E)
KVSF - Hartness State Airport (Springfield) (29 nm NE)
 
Loc | Ops | Rwys | IFR | FBO | Links
Com | Nav | Svcs | Stats | Notes
Area around 4V8 (Deerfield Valley Regional Airport)
 
Road maps at: MapQuest Bing Google
 
Aerial photo
WARNING: Photo may not be current or correct
Aerial photo of 4V8 (Deerfield Valley Regional Airport)
Photo by Guy Rouelle
Photo taken 23-May-2015
looking north.

Do you have a better or more recent aerial photo of Deerfield Valley Regional Airport that you would like to share? If so, please send us your photo.

 
Sectional chart

 
Airport distance calculator
Flying to Deerfield Valley Regional Airport? Find the distance to fly.

From to 4V8

Sunrise and sunset
Times for 20-Nov-2019
 Local
(UTC-5)
 Zulu
(UTC)
Morning civil twilight06:2011:20
Sunrise06:5111:51
Sunset16:2321:23
Evening civil twilight16:5421:54

Current date and time
Zulu (UTC)  20-Nov-2019 17:21:01
Local (UTC-5)  20-Nov-2019 12:21:01
 
METAR
KDDH 
17nm W 
201654Z AUTO 30006KT 4SM BR SCT009 BKN034 OVC044 01/M02 A2996 RMK AO2 SNB04E53 SLP152 P0000 T00061017
KAQW 
19nm SW 
201652Z AUTO VRB05KT 10SM OVC010 01/M01 A2996 RMK AO2 SNE12 CIG 009V014 SLP151 P0001 T00111011 TSNO
KEEN 
26nm E 
201656Z AUTO 35007KT 10SM -RA OVC009 02/01 A2992 RMK AO2 CIG 006V012 SLP140 P0003 T00220011 FZRANO $
KVSF 
30nm NE 
201654Z AUTO VRB03KT 5SM -SN BR OVC016 01/00 A2994 RMK AO2 SNB17 SLP145 P0000 T00110000
KORE 
34nm SE 
201652Z AUTO 33011KT 10SM -RA OVC012 04/01 A2991 RMK AO2 SLP135 P0000 T00390011
TAF
KPSF 
35nm SW 
201459Z 2015/2112 30007KT P6SM VCSH OVC012 TEMPO 2015/2017 2SM -SN BR OVC009 FM202200 31008KT P6SM BKN025 OVC035
KRUT 
36nm N 
201257Z 2013/2112 32004KT 6SM BR OVC006 TEMPO 2013/2017 2SM -SN BR OVC002 FM201800 31006KT 2SM -SN BR OVC007 FM202300 32006KT P6SM VCSH OVC010 FM210300 32006KT P6SM BKN015
KGFL 
41nm NW 
201456Z 2015/2112 02005KT 5SM BR VCSH BKN015 OVC035 TEMPO 2015/2017 1SM -SN BR OVC015 FM201700 34005KT P6SM VCSH BKN025 OVC040 FM202100 02006KT P6SM BKN040
KALB 
42nm W 
201341Z 2014/2112 33005KT 3SM BR VCSH BKN006 OVC015 TEMPO 2014/2016 1SM -DZ BR OVC004 FM201600 33006KT 6SM BR VCSH BKN015 OVC025 FM201800 33007KT P6SM VCSH BKN025 OVC040 FM202100 32008KT P6SM OVC040
NOTAMs
Click for the latest NOTAMs
NOTAMs are issued by the DoD/FAA and will open in a separate window not controlled by AirNav.

 

 
 

Would you like to see your business listed on this page?

 If your business provides an interesting product or service to pilots, flight crews, aircraft, or users of the Deerfield Valley Regional Airport, you should consider listing it here.  To start the listing process, click on the button below
 
Add a business
 

Other Pages about Deerfield Valley Regional Airport

deerfieldvalleyairport.com
vtrans.vermont.gov/...
 
Update a link
 
Copyright © AirNav, LLC. All rights reserved. Privacy Policy  Contact